Home > Time Zones > World Clock > Weather > Japan > Naha > Past weeks

Flag for Japan Weather past 2 weeks in Naha, Okinawa, Japan

Now
61 °F

Partly sunny.


Feels Like: 61 °F
Forecast: 58 / 65 °F
Wind: 12 mph from Northeast

Location: Naha Airport

Current Time: Feb 1, 2015 at 1:21:16 PM

Latest Report: Feb 1, 2015 at 1:00 PM


Visibility: N/A

Pressure: 30.30 "Hg

Humidity: 55%

Dew point: 45 °F

Location of NahaLocation

Historic Weather in Naha — Graph

°F

Naha temperature yesterday

Maximum temperature yesterday: 61 °F (at 12:00 AM)
Minimum temperature yesterday: 57 °F (at 3:00 PM)
Average temperature yesterday: 59 °F

Past Weeks' High & Low Weather Summary

 TemperatureHumidityPressure
High73 °F (Jan 26, 11:00 AM)94% (Jan 27, 2:00 AM)30.36 "Hg (Jan 27, 2:00 AM)
Low50 °F (Jan 24, 6:30 AM)36% (Jan 23, 10:30 AM)29.95 "Hg (Jan 21, 3:30 PM)
Average63 °F62%30.14 "Hg
* Reported Jan 17 12:00 Noon — Feb 1 12:00 Noon, Naha, Weather by CustomWeather, © 2014

Note: Actual official high and low records may vary slightly from our data, if they occured in-between our weather recording intervals... More about our weather records

Advertising

Naha weather history for previous 24 hours

 ConditionsComfort  
Time TempWeatherWind HumidityBarometerVisibility
12:00 PM
Feb 1
61 °FPartly sunny.7 mph55%30.33 "HgN/A
11:30 AM59 °FPartly sunny.8 mph59%30.33 "HgN/A
11:00 AM59 °FPartly sunny.7 mph63%30.33 "HgN/A
10:30 AM59 °FSprinkles. Partly sunny.9 mph63%30.36 "HgN/A
10:00 AM59 °FSprinkles. Partly sunny.14 mph59%30.33 "HgN/A
9:30 AM63 °FScattered clouds.10 mph52%30.33 "HgN/A
9:00 AM61 °FScattered clouds.7 mph52%30.33 "HgN/A
8:30 AM59 °FPassing clouds.6 mph55%30.33 "HgN/A
8:00 AM59 °FBroken clouds.6 mph55%30.33 "HgN/A
7:30 AM59 °FBroken clouds.7 mph51%30.30 "HgN/A
7:00 AM59 °FPassing clouds.6 mph55%30.30 "HgN/A
6:30 AM59 °FPassing clouds.7 mph55%30.30 "HgN/A
6:00 AM59 °FPassing clouds.14 mph55%30.30 "HgN/A
5:30 AM59 °FPassing clouds.13 mph55%30.27 "HgN/A
5:00 AM59 °FPartly cloudy.14 mph55%30.27 "HgN/A
4:30 AM57 °FPassing clouds.17 mph55%30.27 "HgN/A
4:00 AM57 °FPassing clouds.15 mph59%30.27 "HgN/A
3:30 AM57 °FPassing clouds.13 mph55%30.27 "HgN/A
3:00 AM57 °FPassing clouds.15 mph55%30.27 "HgN/A
2:30 AM57 °FPassing clouds.18 mph55%30.27 "HgN/A
2:00 AM57 °FPassing clouds.17 mph59%30.27 "HgN/A
1:30 AM57 °FPassing clouds.20 mph59%30.30 "HgN/A
1:00 AM57 °FPassing clouds.20 mph55%30.30 "HgN/A
12:30 AM57 °FPassing clouds.20 mph59%30.30 "HgN/A
12:00 AM57 °FPassing clouds.16 mph59%30.30 "HgN/A
11:30 PM
Jan 31
57 °FPassing clouds.20 mph55%30.30 "HgN/A
11:00 PM57 °FPassing clouds.20 mph59%30.30 "HgN/A
10:30 PM59 °FPassing clouds.15 mph51%30.30 "HgN/A
10:00 PM57 °FPassing clouds.14 mph55%30.30 "HgN/A
9:30 PM57 °FPassing clouds.18 mph51%30.30 "HgN/A
9:00 PM57 °FPassing clouds.21 mph51%30.30 "HgN/A
8:30 PM59 °FPassing clouds.18 mph51%30.30 "HgN/A
8:00 PM59 °FPassing clouds.18 mph48%30.30 "HgN/A
7:30 PM57 °FPartly cloudy.18 mph51%30.30 "HgN/A
7:00 PM57 °FPartly cloudy.22 mph59%30.30 "HgN/A
6:30 PM59 °FPartly cloudy.23 mph55%30.27 "HgN/A
6:00 PM59 °FBroken clouds.22 mph55%30.27 "HgN/A
5:30 PM57 °FSprinkles. Broken clouds.22 mph63%30.27 "HgN/A
5:00 PM57 °FBroken clouds.21 mph63%30.27 "HgN/A
4:30 PM59 °FPartly sunny.22 mph55%30.24 "HgN/A
4:00 PM57 °FSprinkles. Partly sunny.21 mph63%30.24 "HgN/A
3:30 PM59 °FPartly sunny.22 mph59%30.24 "HgN/A
3:00 PM57 °FBroken clouds.20 mph63%30.24 "HgN/A
2:30 PM59 °FBroken clouds.21 mph59%30.24 "HgN/A
2:00 PM59 °FPartly sunny.20 mph59%30.24 "HgN/A
1:30 PM59 °FBroken clouds.21 mph55%30.27 "HgN/A
1:00 PM59 °FBroken clouds.21 mph59%30.27 "HgN/A
Weather by CustomWeather, © 2014

See weather overviewHow to use our weather pages